RH
20 25 22 22 27 31 33 33 37 38 35 35 29 29 28 27 26 26 32 34 37 40 39 42 42 40 42 43 51 44 45 44
23 26 26 24 30 28 33 35 41 36 32 32 29 29 27 26 25 32 36 35 38 43 38 39 43 42 47 52 51 55 52 48
25 27 30 32 32 31 31 30 32 29 25 29 33 34 30 30 31 34 33 37 39 38 41 39 39 40 48 52 55 52 52 51
25 29 34 35 35 33 30 31 32 35 34 28 29 28 29 29 30 32 34 39 38 40 39 40 45 46 44 50 50 53 51 49
25 29 33 38 38 36 32 32 31 33 38 34 42 37 37 36 39 37 36 38 35 33 33 37 43 46 51 50 40 53 54 53
28 29 32 35 39 39 37 31 32 35 39 42 43 43 39 35 34 37 37 32 32 30 33 39 46 48 52 56 57 56 51 53
28 28 28 30 38 39 38 34 31 32 36 38 41 44 41 36 36 36 33 36 34 36 34 42 49 49 51 53 65 67 69 67
29 30 30 33 35 37 37 34 34 32 35 36 38 40 40 39 40 39 44 40 37 37 42 48 47 53 65 65 66 70 70 78
29 29 31 32 34 36 39 36 34 31 34 37 38 40 38 41 44 45 44 41 40 44 47 58 68 77 77 80 87 81 81 94
29 30 32 33 33 35 38 38 34 34 37 39 43 44 45 46 47 47 43 45 41 52 71 79 82 78 78 85 88 89 88 75
31 30 32 33 33 33 36 34 33 35 38 43 40 41 40 43 45 45 45 48 62 65 76 77 76 79 79 75 84 81 86 89
31 30 31 33 32 32 32 35 36 35 32 33 37 37 39 41 41 43 48 56 59 62 65 73 72 65 60 62 63 60 61 59
31 33 33 35 32 30 33 34 28 27 28 31 35 38 38 40 47 56 56 55 57 59 65 64 57 54 47 47 50 45 45 46
30 34 37 36 32 33 30 26 28 30 32 36 38 38 46 53 56 58 53 57 60 61 62 64 54 46 45 45 42 41 40 39
34 36 36 34 32 30 27 28 33 35 35 36 39 47 57 59 70 82 74 64 62 61 55 46 42 35 34 35 34 42 42 38
39 41 38 34 32 30 29 31 34 36 38 37 40 54 55 61 65 63 56 54 40 37 37 36 36 34 30 44 44 47 44 42
45 40 39 38 31 32 31 31 36 37 38 38 40 48 46 48 49 48 44 43 42 37 36 37 38 29 71 65 60 50 46 45
44 45 44 38 33 32 30 30 31 34 38 35 41 44 45 46 42 42 42 43 37 38 38 38 40 40 61 62 67 52 52 50
51 50 40 31 33 33 29 28 29 32 32 35 37 46 47 43 39 38 38 37 39 40 41 40 42 38 69 68 69 58 56 54
Wind_Speed
9 4 2 3 7 7 6 5 4 2 3 2 4 4 4 3 4 4 7 8 7 7 8 10 9 9 9 9 11 11 11 11
13 9 6 3 4 2 6 3 8 4 3 4 4 4 5 5 5 7 5 5 8 10 8 10 10 11 11 11 11 13 11 11
12 12 13 11 9 8 8 7 7 5 3 4 2 3 4 4 3 6 8 6 9 10 10 10 11 10 11 11 12 11 11 11
12 13 13 12 12 10 10 9 7 7 6 3 4 4 4 6 6 8 8 9 11 10 11 10 11 11 10 11 11 14 12 11
11 11 12 11 10 8 8 7 7 6 7 6 6 7 8 8 9 9 9 11 12 12 13 12 11 10 12 11 11 11 12 13
10 10 10 10 8 7 6 6 5 6 7 7 7 9 8 8 8 10 11 10 12 13 13 13 11 10 11 13 12 13 11 11
9 8 6 7 6 6 6 6 7 6 6 7 8 9 9 9 9 9 9 10 11 13 15 13 12 12 10 10 10 10 8 9
5 5 6 5 5 6 7 9 10 9 8 8 9 9 11 11 11 10 13 12 12 13 14 12 10 11 8 7 7 5 6 6
3 3 5 7 7 8 7 11 13 13 12 11 10 12 8 9 11 11 10 11 12 14 11 10 10 10 7 5 2 3 4 2
5 6 7 8 9 10 10 12 13 13 13 11 11 11 11 11 13 13 11 13 11 12 12 10 9 9 9 10 7 8 5 5
7 8 8 8 9 10 9 9 10 12 13 11 11 12 12 13 12 14 14 11 9 8 7 6 7 6 6 5 5 5 5 6
8 7 7 8 8 9 10 10 11 12 12 13 13 12 13 11 11 11 12 6 6 6 7 6 6 8 7 7 8 9 9 9
6 6 8 9 10 9 9 10 12 13 14 13 13 13 13 11 11 8 9 9 8 7 8 10 8 10 9 9 10 10 11 12
10 9 7 9 8 8 10 12 13 13 13 12 12 13 12 9 9 11 7 10 11 11 9 10 12 12 12 11 12 11 13 15
8 9 11 12 9 8 11 11 11 11 12 12 12 12 10 9 6 8 12 8 10 11 11 11 12 11 12 12 10 12 15 14
13 11 11 11 9 10 11 12 12 11 11 12 9 7 8 5 7 7 8 10 10 12 13 13 12 11 8 8 8 12 16 16
11 10 11 10 10 11 12 12 11 10 12 11 9 7 7 7 9 9 10 11 12 13 13 13 12 10 9 7 8 11 15 17
9 9 11 12 10 11 12 11 12 10 10 10 8 9 9 9 10 11 12 12 13 13 13 13 12 14 6 6 10 11 15 16
8 10 13 10 11 14 11 12 13 12 11 9 9 7 9 10 10 11 12 12 12 12 12 12 13 10 8 10 13 14 14 16
Wind_Direction
158 146 240 343 15 351 320 289 169 239 308 228 250 244 263 264 293 331 355 324 328 313 299 293 290 286 283 283 288 285 283 285
59 50 50 78 55 43 56 104 42 324 300 328 321 316 351 310 321 13 318 321 319 308 294 300 300 292 295 295 284 278 275 274
88 82 73 66 66 61 68 71 44 20 42 0 348 314 315 311 263 348 317 336 306 304 312 303 302 298 293 289 285 282 278 274
82 74 67 67 62 62 68 68 61 46 353 21 347 300 293 308 317 300 308 314 304 304 307 310 307 301 295 294 290 286 284 277
76 78 76 75 69 64 70 51 45 42 18 1 347 312 305 317 296 323 324 309 313 318 314 313 306 307 295 292 289 300 299 290
82 85 87 73 62 52 36 19 32 23 353 344 330 325 322 309 315 327 312 315 325 320 318 321 316 304 302 307 301 291 296 297
85 78 60 69 58 34 9 348 341 351 338 332 330 323 322 318 322 317 328 325 322 324 325 320 314 298 302 321 355 0 346 325
61 44 15 31 5 356 339 340 333 336 330 324 328 319 318 318 328 332 329 325 323 318 322 314 316 339 350 340 324 320 341 336
16 2 352 350 348 342 330 329 330 335 333 331 332 330 329 329 330 325 318 317 321 323 324 354 4 29 15 359 13 343 307 282
345 347 8 347 342 339 343 337 331 332 325 325 332 328 321 312 327 325 322 324 320 3 29 42 36 21 11 8 347 334 290 274
341 336 344 346 337 329 319 309 318 325 335 337 319 319 317 326 325 319 325 334 18 10 38 21 1 352 329 314 291 300 312 316
317 319 314 303 320 323 331 332 332 327 329 324 320 322 316 318 316 326 332 348 349 333 321 321 307 286 292 287 279 277 275 273
305 298 314 335 329 336 329 331 327 338 328 328 324 317 320 324 351 344 328 311 289 303 284 288 303 305 301 296 282 296 296 294
320 337 322 316 325 326 331 336 338 331 324 322 322 323 345 332 324 307 308 302 312 309 322 322 311 312 307 303 297 305 313 311
305 321 315 329 323 336 332 327 324 321 323 319 321 350 336 340 351 355 317 316 312 301 292 294 304 311 305 295 314 322 311 302
340 339 331 313 335 326 318 323 318 318 312 317 340 348 309 290 281 282 301 296 314 316 312 310 312 310 322 344 324 316 308 304
348 339 322 318 316 316 318 310 311 307 316 317 347 319 313 309 305 308 318 321 319 318 313 312 309 304 82 40 348 315 305 299
344 324 310 297 308 310 304 309 303 311 301 315 313 300 321 323 317 316 310 314 319 314 311 313 316 313 71 4 345 317 305 294
311 289 279 305 307 296 308 310 309 302 307 321 326 320 301 297 304 309 325 318 316 313 314 326 320 319 56 3 342 310 303 302